When you browse on this site, cookies collect data to enhance your experience and personalize the content and advertising you see.
Visit our Privacy Policy to learn more. By continuing to use the site, you agree to this use of cookies and data.
  • In Belgien
  • Länderverzeichnis
  • Für 7 Tage
  • Wassertemperatur
  • Satellitenkarten
  • Wetterkarte
  • Widgets
  • user-avatar
    Anmelden

    Stündliche Wetter Algier

    Heute, 19 November, Montag

    Zeit Temperatur Niederschläge Wind Luftdruck Luftfeuchtigkeit
    00:00 +17°C° 0 mm 4 m/S 739 mmHg 63%
    01:00 +16°C° 0 mm 5 m/S 738 mmHg 64%
    02:00 +16°C° 0 mm 5 m/S 738 mmHg 66%
    03:00 +15°C° 0 mm 5 m/S 738 mmHg 68%
    04:00 +15°C° 0.1 mm 5 m/S 738 mmHg 69%
    05:00 +15°C° 0.1 mm 5 m/S 738 mmHg 71%
    06:00 +15°C° 0.1 mm 6 m/S 738 mmHg 73%
    07:00 +15°C° 0.2 mm 6 m/S 738 mmHg 68%
    08:00 +16°C° 0.2 mm 6 m/S 738 mmHg 64%
    09:00 +17°C° 0.2 mm 6 m/S 738 mmHg 59%
    10:00 +17°C° 0 mm 7 m/S 738 mmHg 55%
    11:00 +18°C° 0 mm 7 m/S 738 mmHg 51%
    12:00 +20°C° 0 mm 8 m/S 738 mmHg 46%
    13:00 +18°C° 0.1 mm 8 m/S 737 mmHg 49%
    14:00 +18°C° 0.1 mm 9 m/S 737 mmHg 52%
    15:00 +17°C° 0.1 mm 9 m/S 737 mmHg 55%
    16:00 +16°C° 0.1 mm 9 m/S 737 mmHg 59%
    17:00 +16°C° 0.1 mm 9 m/S 737 mmHg 62%
    18:00 +15°C° 0.1 mm 9 m/S 737 mmHg 66%
    19:00 +15°C° 0.2 mm 9 m/S 738 mmHg 67%
    20:00 +13°C° 0.2 mm 9 m/S 738 mmHg 69%
    21:00 +13°C° 0.2 mm 9 m/S 738 mmHg 70%
    22:00 +13°C° 0.4 mm 9 m/S 738 mmHg 71%
    23:00 +13°C° 0.4 mm 8 m/S 739 mmHg 72%

    Morgen, 20 November, Dienstag

    Zeit Temperatur Niederschläge Wind Luftdruck Luftfeuchtigkeit
    00:00 +13°C° 0.4 mm 8 m/S 739 mmHg 73%
    01:00 +13°C° 1.5 mm 8 m/S 739 mmHg 74%
    02:00 +14°C° 1.5 mm 7 m/S 739 mmHg 75%
    03:00 +12°C° 1.5 mm 7 m/S 739 mmHg 76%
    04:00 +13°C° 1.2 mm 6 m/S 739 mmHg 78%
    05:00 +13°C° 1.2 mm 6 m/S 740 mmHg 79%
    06:00 +13°C° 1.2 mm 5 m/S 740 mmHg 80%
    07:00 +14°C° 0.5 mm 5 m/S 741 mmHg 79%
    08:00 +14°C° 0.5 mm 5 m/S 741 mmHg 78%
    09:00 +14°C° 0.5 mm 6 m/S 742 mmHg 78%
    10:00 +15°C° 0.2 mm 6 m/S 742 mmHg 71%
    11:00 +17°C° 0.2 mm 6 m/S 742 mmHg 64%
    12:00 +18°C° 0.2 mm 7 m/S 742 mmHg 57%
    13:00 +19°C° 0 mm 6 m/S 742 mmHg 51%
    14:00 +20°C° 0 mm 5 m/S 742 mmHg 45%
    15:00 +20°C° 0 mm 4 m/S 742 mmHg 39%
    16:00 +19°C° 0 mm 4 m/S 742 mmHg 43%
    17:00 +18°C° 0 mm 4 m/S 743 mmHg 48%
    18:00 +16°C° 0 mm 5 m/S 743 mmHg 52%
    19:00 +16°C° 0.1 mm 5 m/S 744 mmHg 56%
    20:00 +15°C° 0.1 mm 6 m/S 744 mmHg 59%
    21:00 +15°C° 0.1 mm 7 m/S 745 mmHg 63%
    22:00 +15°C° 0.1 mm 7 m/S 745 mmHg 65%
    23:00 +15°C° 0.1 mm 8 m/S 745 mmHg 67%

    übermorgen, 21 November, Mittwoch

    Zeit Temperatur Niederschläge Wind Luftdruck Luftfeuchtigkeit
    00:00 +13°C° 0.1 mm 9 m/S 745 mmHg 69%
    01:00 +13°C° 0 mm 8 m/S 746 mmHg 71%
    02:00 +13°C° 0 mm 8 m/S 746 mmHg 74%
    03:00 +12°C° 0 mm 8 m/S 746 mmHg 77%
    04:00 +12°C° 0.1 mm 8 m/S 746 mmHg 77%
    05:00 +12°C° 0.1 mm 7 m/S 747 mmHg 78%
    06:00 +12°C° 0.1 mm 7 m/S 747 mmHg 78%
    07:00 +14°C° 0.1 mm 7 m/S 748 mmHg 71%
    08:00 +16°C° 0.1 mm 7 m/S 748 mmHg 64%
    09:00 +17°C° 0.1 mm 7 m/S 749 mmHg 57%
    10:00 +19°C° 0 mm 6 m/S 749 mmHg 52%
    11:00 +20°C° 0 mm 5 m/S 749 mmHg 47%
    12:00 +21°C° 0 mm 5 m/S 749 mmHg 42%
    13:00 +21°C° 0 mm 4 m/S 749 mmHg 40%
    14:00 +22°C° 0 mm 3 m/S 749 mmHg 39%
    15:00 +23°C° 0 mm 2 m/S 748 mmHg 37%
    16:00 +21°C° 0 mm 2 m/S 749 mmHg 42%
    17:00 +19°C° 0 mm 2 m/S 749 mmHg 46%
    18:00 +18°C° 0 mm 2 m/S 749 mmHg 51%
    19:00 +18°C° 0 mm 3 m/S 749 mmHg 50%
    20:00 +18°C° 0 mm 3 m/S 749 mmHg 49%
    21:00 +18°C° 0 mm 4 m/S 750 mmHg 49%
    22:00 +17°C° 0 mm 4 m/S 750 mmHg 50%
    23:00 +17°C° 0 mm 4 m/S 749 mmHg 51%

    22 November, Donnerstag

    Zeit Temperatur Niederschläge Wind Luftdruck Luftfeuchtigkeit
    00:00 +17°C° 0 mm 4 m/S 749 mmHg 51%
    01:00 +15°C° 0 mm 4 m/S 749 mmHg 53%
    02:00 +15°C° 0 mm 4 m/S 749 mmHg 54%
    03:00 +15°C° 0 mm 4 m/S 749 mmHg 55%
    04:00 +15°C° 0 mm 4 m/S 749 mmHg 54%
    05:00 +15°C° 0 mm 4 m/S 749 mmHg 54%
    06:00 +15°C° 0 mm 4 m/S 749 mmHg 53%
    07:00 +17°C° 0 mm 4 m/S 749 mmHg 50%
    08:00 +18°C° 0 mm 4 m/S 750 mmHg 48%
    09:00 +19°C° 0 mm 4 m/S 750 mmHg 45%
    10:00 +20°C° 0 mm 4 m/S 750 mmHg 40%
    11:00 +22°C° 0 mm 3 m/S 750 mmHg 35%
    12:00 +24°C° 0 mm 3 m/S 750 mmHg 30%
    13:00 +24°C° 0 mm 3 m/S 750 mmHg 30%
    14:00 +24°C° 0 mm 3 m/S 750 mmHg 30%
    15:00 +24°C° 0 mm 2 m/S 750 mmHg 31%
    16:00 +21°C° 0 mm 2 m/S 750 mmHg 36%
    17:00 +20°C° 0 mm 2 m/S 750 mmHg 41%
    18:00 +18°C° 0 mm 2 m/S 751 mmHg 46%
    19:00 +18°C° 0 mm 2 m/S 751 mmHg 46%
    20:00 +18°C° 0 mm 3 m/S 751 mmHg 45%
    21:00 +17°C° 0 mm 3 m/S 752 mmHg 45%
    22:00 +17°C° 0 mm 3 m/S 751 mmHg 45%
    23:00 +17°C° 0 mm 3 m/S 751 mmHg 45%

    23 November, Freitag

    Zeit Temperatur Niederschläge Wind Luftdruck Luftfeuchtigkeit
    00:00 +16°C° 0 mm 3 m/S 751 mmHg 44%
    01:00 +15°C° 0 mm 4 m/S 751 mmHg 45%
    02:00 +15°C° 0 mm 4 m/S 751 mmHg 46%
    03:00 +15°C° 0 mm 4 m/S 751 mmHg 47%
    04:00 +15°C° 0 mm 4 m/S 751 mmHg 47%
    05:00 +14°C° 0 mm 4 m/S 751 mmHg 47%
    06:00 +14°C° 0 mm 4 m/S 751 mmHg 48%
    07:00 +15°C° 0 mm 4 m/S 751 mmHg 46%
    08:00 +18°C° 0 mm 4 m/S 751 mmHg 44%
    09:00 +19°C° 0 mm 5 m/S 752 mmHg 42%
    10:00 +20°C° 0 mm 4 m/S 751 mmHg 39%
    11:00 +22°C° 0 mm 4 m/S 751 mmHg 35%
    12:00 +23°C° 0 mm 4 m/S 751 mmHg 32%
    13:00 +23°C° 0 mm 4 m/S 750 mmHg 32%
    14:00 +24°C° 0 mm 3 m/S 750 mmHg 32%
    15:00 +24°C° 0 mm 3 m/S 749 mmHg 33%
    16:00 +22°C° 0 mm 3 m/S 750 mmHg 35%
    17:00 +21°C° 0 mm 3 m/S 750 mmHg 37%
    18:00 +19°C° 0 mm 3 m/S 750 mmHg 40%
    19:00 +19°C° 0 mm 4 m/S 750 mmHg 41%
    20:00 +19°C° 0 mm 4 m/S 750 mmHg 42%
    21:00 +17°C° 0 mm 5 m/S 750 mmHg 43%
    22:00 +17°C° 0 mm 5 m/S 750 mmHg 44%
    23:00 +17°C° 0 mm 5 m/S 749 mmHg 45%

    24 November, Samstag

    Zeit Temperatur Niederschläge Wind Luftdruck Luftfeuchtigkeit
    00:00 +17°C° 0 mm 6 m/S 749 mmHg 46%
    01:00 +17°C° 0 mm 5 m/S 749 mmHg 47%
    02:00 +16°C° 0 mm 5 m/S 749 mmHg 48%
    03:00 +16°C° 0 mm 5 m/S 749 mmHg 48%
    04:00 +16°C° 0 mm 5 m/S 749 mmHg 50%
    05:00 +15°C° 0 mm 4 m/S 750 mmHg 52%
    06:00 +15°C° 0 mm 4 m/S 750 mmHg 54%
    07:00 +17°C° 0 mm 4 m/S 750 mmHg 53%
    08:00 +18°C° 0 mm 3 m/S 751 mmHg 51%
    09:00 +19°C° 0 mm 3 m/S 752 mmHg 50%
    10:00 +20°C° 0 mm 3 m/S 751 mmHg 51%
    11:00 +20°C° 0 mm 3 m/S 751 mmHg 51%
    12:00 +21°C° 0 mm 3 m/S 750 mmHg 52%
    13:00 +21°C° 0 mm 3 m/S 750 mmHg 56%
    14:00 +20°C° 0 mm 3 m/S 750 mmHg 60%
    15:00 +20°C° 0 mm 3 m/S 750 mmHg 64%
    16:00 +19°C° 0 mm 3 m/S 751 mmHg 72%
    17:00 +18°C° 0 mm 3 m/S 751 mmHg 80%
    18:00 +17°C° 0 mm 3 m/S 752 mmHg 88%
    19:00 +17°C° 0 mm 2 m/S 752 mmHg 88%
    20:00 +17°C° 0 mm 2 m/S 752 mmHg 87%
    21:00 +17°C° 0 mm 2 m/S 753 mmHg 87%
    22:00 +17°C° 0.1 mm 2 m/S 753 mmHg 88%
    23:00 +16°C° 0.1 mm 2 m/S 753 mmHg 89%
    Mehr zeigen